User: anonymous   Login
Location: Unspecified
(0.0000°N, 0.0000°E)
Time: 17:49:30
(UTC+02:00)
Language:

Cosmos 2219 - Orbit

View from above orbital plane
View from above orbital plane
View from above satellite
View from above satellite

Ground track
Ground track

The orbit data is extracted from the following two-line orbital elements,

1 22219U 92076A   14294.97503495  .00000030  00000-0  40818-4 0  6380
2 22219 071.0633 062.1427 0016144 062.2584 080.6986 14.13513246131252
Epoch (UTC): 21 October 2014 23:24:03
Eccentricity: 0.0016144
inclination: 71.0633°
perigee height: 836 km
apogee height: 859 km
right ascension of ascending node: 62.1427°
argument of perigee: 62.2584°
revolutions per day: 14.13513246
mean anomaly at epoch: 80.6986°
orbit number at epoch: 13125

The dashed part of the orbit path shows where the satellite is in the earth's shadow,  

DLR